www.pogodaiklimat.ru

Погода и климат >> Архив погоды >> Финляндия >> Хельсинки университет


ПОГОДА в Хельсинки университете

  • Прогноз погоды в Хельсинки университете
  • Монитор погоды в Хельсинки университете

АРХИВ ПОГОДЫ в Хельсинки университете

Время (UTC), дата Ветер
(напр.,м/с)
 
Видим.   Явления Облачность Т
(С)
Тd
(С)
f
(%)
Тe
(С)
Тes
(С)
Комфортность P
(гПа)
Po
(гПа)
Тmin
(С)
Tmax
(С)
R
(мм)
R24
(мм)
S
(см)
15 14.07 Ю 4 45 км ясно +18.4 +6.8 47 +19 +22 1011.7 1008.7
18 14.07 ЮЗ 4 50 км 1/1 2000 м
[]
+15.5 +8.6 63 +15 +15 1011.7 1008.7 +14.6 +18.8
21 14.07 ЮЗ 4 50 км 9/4 1500 м
[]
+14.2 +11.3 83 +13 +13 1011.9 1008.9
00 15.07 ЮЗ 2 50 км 9/9 2000 м
[]
+14.2 +12.0 87 +14 +14 1011.3 1008.3
03 15.07 В 2 40 км 1/1 2000 м
[]
+13.6 +12.1 91 +13 +13 1010.7 1007.7
06 15.07 ЮВ 3 40 км 6/6 200 м
[]
+18.1 +14.0 77 +18 +20 1010.2 1007.2 +12.4 +18.2
09 15.07 Ю 4 30 км слаб. ливневой дождь 9/4 1500 м
[]
+17.4 +13.5 78 +17 +20 1010.0 1007.0
12 15.07 Ю 3 25 км слаб. ливневой дождь 9/1 1000 м
[]
+17.0 +13.0 77 +17 +22 1009.7 1006.7
15 15.07 ЮВ 3 50 км {ливн. осадки, метель} ясно +20.5 +7.8 44 +22 +26 комфорт 1008.8 1005.9
18 15.07 ЮВ 3 40 км слаб. ливневой дождь {метель} 9/1 600 м
[]
+15.9 +11.6 76 +15 +16 1008.1 1005.1 +15.9 +21.2 0.2
21 15.07 ЮВ 3 50 км в посл. час дождь {ливн. осадки, метель} 6/1 1000 м
[]
+15.9 +13.5 86 +15 +15 1007.2 1004.2
00 16.07 ЮВ 5 50 км {ливн. осадки, метель} 1/1 2000 м
[]
+15.4 +12.6 83 +14 +14 1006.4 1003.4
03 16.07 ЮВ 5 40 км 10/1 600 м
[]
+15.4 +12.9 85 +14 +14 1006.4 1003.4
06 16.07 В 4 30 км морось {дождь} 9/1 600 м
[]
+15.4 +13.4 88 +14 +16 1006.4 1003.4 +14.9 +16.4 0.5
09 16.07 В 4 21 км слаб. дождь {морось} 9/6 1500 м
[]
+16.7 +14.7 88 +16 +18 1007.0 1004.0
12 16.07 В 6 45 км {ливн. осадки, дождь} 6/1 1500 м
[]
+18.8 +13.5 71 +19 +22 1007.2 1004.2
15 16.07 В 2 40 км в посл. час дождь {ливн. осадки} 9/9 2000 м
[]
+15.4 +12.7 84 +15 +16 1008.3 1005.3
18 16.07 СВ 2 50 км {ливн. осадки, дождь} 1/0
[]
+16.0 +12.7 81 +16 +16 1008.9 1005.9 +14.2 +19.9 8
21 16.07 С 4 45 км ясно +14.6 +12.5 87 +13 +13 1009.0 1006.0
00 17.07 С 3 30 км ясно +12.7 +11.1 90 +11 +11 1009.2 1006.2
03 17.07 С 3 50 км ясно +13.2 +10.2 82 +12 +12 1009.4 1006.4
06 17.07 СВ 2 40 км ясно +17.9 +11.0 64 +18 +24 1009.5 1006.5 +11.3 +18.0
09 17.07 В 4 45 км ясно +22.0 +10.6 48 +24 +32 комфорт 1009.4 1006.5
12 17.07 В 3 40 км в посл. час дождь {ливн. осадки} 1/1
[]
+22.1 +11.8 52 +24 +33 комфорт 1009.7 1006.7
15 17.07 С 1 50 км {метель} 1/1
[]
+19.8 +11.2 58 +22 +28 комфорт 1010.3 1007.3
18 17.07 С 1 50 км {метель} 9/9
[]
+18.9 +9.0 53 +21 +21 комфорт 1010.5 1007.5 +17.9 +24.2
21 17.07 СЗ 3 50 км ясно +15.2 +12.3 83 +14 +14 1010.5 1007.5
00 18.07 С 4 50 км ясно +13.4 +11.9 91 +12 +12 1010.7 1007.7
03 18.07 СЗ 3 45 км ясно +12.9 +11.3 90 +11 +12 1010.7 1007.6
06 18.07 С 3 40 км ясно +18.5 +12.0 66 +19 +24 1010.5 1007.5 +11.6 +19.2
09 18.07 С 4 40 км ясно +22.1 +10.7 48 +24 +32 комфорт 1010.1 1007.1
12 18.07 СЗ 4 35 км 1/1
[]
+23.8 +8.8 38 +24 +32 комфорт 1009.5 1006.5
15 18.07 С 6 50 км 1/1 1500 м
[]
+24.0 +8.3 37 +25 +26 комфорт 1009.2 1006.2
18 18.07 С 4 50 км ясно +22.0 +8.5 42 +23 +23 комфорт 1009.3 1006.3 +18.5 +25.1
21 18.07 СЗ 3 50 км ясно +17.9 +8.1 53 +18 +18 1009.8 1006.8
00 19.07 СЗ 4 50 км ясно +15.4 +9.5 68 +14 +14 1010.0 1007.0
03 19.07 СЗ 4 50 км ясно +15.2 +9.9 71 +14 +14 1010.3 1007.3
06 19.07 СЗ 5 40 км ясно +19.5 +11.9 61 +21 +23 комфорт 1009.9 1006.9 +14.4 +22.0
09 19.07 СЗ 4 35 км 1/1 1000 м
[]
+22.7 +11.0 48 +25 +32 комфорт 1009.7 1006.7
12 19.07 СЗ 5 40 км 4/4 1500 м
[]
+24.3 +8.6 37 +25 +29 комфорт 1009.6 1006.7
15 19.07 СЗ 4 50 км 6/6 1500 м
[]
+24.4 +8.7 37 +25 +26 комфорт 1009.9 1007.0
18 19.07 ЮВ 3 50 км 9/9 1500 м
[]
+20.5 +13.2 63 +23 +23 комфорт 1010.3 1007.4 +19.4 +25.1
21 19.07 З 3 50 км ясно +16.4 +13.6 84 +16 +16 1011.1 1008.1
00 20.07 С 4 50 км ясно +15.2 +9.2 67 +14 +14 1012.1 1009.0
03 20.07 СЗ 3 50 км ясно +14.0 +10.1 77 +13 +13 1012.9 1009.9
06 20.07 СЗ 4 35 км ясно +20.3 +11.8 58 +22 +26 комфорт 1013.6 1010.6 +12.4 +20.5
09 20.07 С 4 40 км 1/1 1500 м
[]
+23.4 +9.0 40 +25 +32 комфорт 1014.1 1011.2
12 20.07 Ю 3 40 км 6/6 1500 м
[]
+24.1 +12.1 47 +26 +30 жарко 1014.9 1011.9
15 20.07 ЮЗ 5 50 км 1/1 2000 м
[]
+23.9 +12.3 48 +26 +28 жарко 1014.9 1012.0
18 20.07 ЮЗ 1 50 км 1/1 2000 м
[]
+20.6 +14.0 66 +24 +25 комфорт 1015.3 1012.3 +20.3 +25.7
21 20.07 ЮВ 1 35 км ясно +17.0 +15.6 91 +18 +18 1016.3 1013.3
00 21.07 СЗ 2 22 км ясно +15.2 +14.8 97 +15 +15 1016.8 1013.8
03 21.07 С 2 45 км ясно +15.1 +12.9 87 +15 +15 1016.9 1013.8
06 21.07 В 1 40 км ясно +22.3 +13.2 56 +25 +32 комфорт 1017.4 1014.4 +13.9 +22.3
09 21.07 ЮВ 3 30 км ясно +24.9 +12.1 45 +27 +37 жарко 1017.3 1014.4
12 21.07 Ю 3 35 км ясно +26.0 +12.4 43 +28 +37 жарко 1017.2 1014.3

 

Местоположение метеостанции Хельсинки университет (Финляндия): широта 60.20 долгота 24.96 высота над уровнем моря 28 м.

В архиве по умолчанию представлена погода в Хельсинки университете за последнюю неделю. Архивные данные за месяц целиком и за предыдущие месяцы, начиная с января 2011 года, Вы можете получить, выбрав интересующий диапазон дат из раскрывающегося списка и нажав кнопку "Ввод!".


*Определитесь, кто Вы:
робот инопланетянин человек

Внимание! Время в таблицах - всемирное. Для получения местного времени необходимо прибавить поправку, которая равна 1 ч.

Смотрите также архив погоды в соседних городах и на ближайших метеорологических станциях:

Погода в Хельсинки Кайсаниеми (Финляндия) (2 км)
Погода в Эспо Тапиола (Финляндия) (10 км)
Погода на Острове Хармая (Финляндия) (11 км)
Погода в Хельсинки (Финляндия) (14 км)
Погода в Эспо Нууксио (Финляндия) (24 км)
Погода на Хельсинском маяке (Финляндия) (28 км)
Погода в Килпилахти (Финляндия) (34 км)
Погода на Эмасало (Финляндия) (37 км)
Погода в Нурмиярви (Финляндия) (38 км)
Погода в Вихти (Финляндия) (39 км)

Пояснения к столбцам:

Ветер - указаны скорость ветра в м/с - средняя за 10 мин, порывы в срок и между сроками (в фигурных скобках) и направление, откуда дует ветер: С - северный, СВ - северо-восточный, В - восточный, ЮВ - юго-восточный, Ю - южный, ЮЗ - юго-западный, З - западный, СЗ - северо-западный.
Видимость - горизонтальная дальность видимости в метрах или километрах. При видимости от 1 до 10 км при отсутствии осадков обычно наблюдается дымка, при ухудшении видимости до 1 км и менее - туман. В сухую погоду видимость может ухудшаться дымом, пылью или мглою.
Явления - указаны атмосферные явления, наблюдавшиеся в срок или в последний час перед сроком; фигурными скобками обозначены явления, наблюдавшиеся между сроками (за 1-3 часа до срока); квадратными скобками обозначены град или гололедные отложения с указанием их диаметра в мм.
Облачность - указаны через наклонную черту общая и нижняя облачность в баллах и высота нижней границы облаков в метрах; квадратными скобками обозначены формы облаков: Ci - перистые, Cs - перисто-слоистые, Cc - перисто-кучевые, Ac - высококучевые, As - высокослоистые, Sc - слоисто-кучевые, Ns - слоисто-дождевые, Cu - кучевые, Cb - кучево-дождевые. Подробнее классификацию облаков см. в Атласе облаков (PDF).
T - Температура воздуха - температура, измеренная на высоте 2 м над землей.
Td - Температура точки росы - температура, при понижении до которой содержащийся в воздухе водяной пар достигнет насыщения.
f - Относительная влажность воздуха - влажноcть воздуха, измеренная на высоте 2 м над землей.
Te - Эффективная температура - температура, которую ощущает одетый по сезону человек в тени. Характеристика душности погоды. При расчете учитывается влияние влажности воздуха и скорости ветра на теплоощущения человека.
Tes - Эффективная температура на солнце - температура, которую ощущает человек, с поправкой на солнечный нагрев. Характеристика знойности погоды. Зависит от высоты солнца над горизонтом, облачности и скорости ветра. Ночью, в пасмурную погоду, а также при ветре 12 м/с и более поправка равна нулю.
P - Атмосферное давление - приведенное к уровню моря атмосферное давление.
Po - Атмосферное давление - измеренное на уровне метеостанции атмосферное давление.
Tmin - Минимальная температура - минимум температуры воздуха на высоте 2 м над землей.
Tmax - Максимальная температура - максимум температуры воздуха на высоте 2 м над землей.
R - Количество осадков - Количество выпавших осадков за период времени, мм. При наведении курсора мыши на число - период времени, за который выпало указанное количество осадков.
R24 - Количество осадков - Количество выпавших осадков за 24 часа, мм.
S - Снежный покров - Высота снежного покрова, см. При наведении курсора мыши на число - состояние снежного покрова и степень покрытия местности в баллах.